QPF
0.06 0.08 0.09 0.07 0.05 0.05 0.08 0.09 0.08 0.07 0.08 0.09 0.07 0.06 0.07 0.14 0.27 0.35 0.36 0.22 0.07 0.03 0.02 0.01 0.01 0.01 0.01 0.01 0.01 0.01 0.04 0.07 0.10 0.10 0.08 0.03 0.02 0.03
0.08 0.12 0.13 0.11 0.07 0.04 0.04 0.06 0.06 0.04 0.02 0.03 0.02 0.02 0.05 0.12 0.20 0.23 0.26 0.14 0.04 0.02 0.01 0.02 0.02 0.02 0.02 0.03 0.03 0.03 0.05 0.11 0.12 0.11 0.08 0.05 0.03 0.02
0.04 0.05 0.05 0.05 0.05 0.02 0.02 0.03 0.04 0.05 0.05 0.03 0.03 0.03 0.06 0.14 0.17 0.15 0.15 0.09 0.06 0.03 0.02 0.03 0.03 0.04 0.03 0.02 0.03 0.04 0.06 0.12 0.18 0.15 0.11 0.07 0.05 0.02
0.01 0.01 0.01 0.02 0.02 0.00 0.00 0.00 0.02 0.05 0.06 0.07 0.06 0.06 0.06 0.10 0.12 0.14 0.14 0.14 0.16 0.10 0.04 0.02 0.03 0.05 0.03 0.02 0.04 0.04 0.08 0.12 0.18 0.19 0.14 0.09 0.05 0.02
0.00 0.01 0.01 0.01 0.01 0.00 0.00 0.00 0.00 0.03 0.10 0.12 0.13 0.12 0.11 0.10 0.08 0.12 0.14 0.23 0.31 0.21 0.08 0.03 0.02 0.04 0.05 0.02 0.06 0.13 0.23 0.23 0.20 0.18 0.14 0.08 0.03 0.01
0.00 0.00 0.00 0.00 0.00 0.00 0.00 0.00 0.00 0.02 0.07 0.11 0.11 0.10 0.11 0.08 0.07 0.11 0.17 0.26 0.34 0.27 0.17 0.09 0.03 0.02 0.04 0.02 0.03 0.11 0.20 0.25 0.25 0.19 0.12 0.07 0.03 0.01
0.00 0.00 0.00 0.00 0.00 0.00 0.00 0.00 0.01 0.01 0.01 0.02 0.02 0.02 0.04 0.03 0.04 0.08 0.15 0.27 0.35 0.34 0.31 0.22 0.13 0.09 0.06 0.04 0.03 0.05 0.08 0.09 0.14 0.17 0.14 0.06 0.02 0.00
0.00 0.00 0.00 0.00 0.00 0.00 0.00 0.00 0.00 0.01 0.01 0.01 0.00 0.00 0.01 0.01 0.03 0.08 0.17 0.33 0.49 0.51 0.50 0.46 0.33 0.26 0.20 0.14 0.07 0.04 0.03 0.03 0.04 0.05 0.07 0.04 0.02 0.01
0.00 0.00 0.00 0.00 0.00 0.00 0.00 0.00 0.00 0.00 0.00 0.01 0.00 0.00 0.00 0.00 0.02 0.07 0.17 0.43 0.71 0.82 0.75 0.79 0.60 0.38 0.26 0.18 0.14 0.08 0.04 0.02 0.01 0.00 0.00 0.00 0.00 0.00
0.00 0.00 0.00 0.00 0.00 0.00 0.00 0.00 0.00 0.00 0.00 0.00 0.00 0.00 0.00 0.01 0.01 0.03 0.05 0.17 0.38 0.54 0.66 0.85 0.83 0.70 0.48 0.22 0.14 0.12 0.11 0.07 0.03 0.01 0.01 0.01 0.00 0.00
0.00 0.00 0.00 0.00 0.00 0.00 0.00 0.00 0.00 0.00 0.00 0.00 0.00 0.00 0.00 0.00 0.01 0.03 0.02 0.02 0.04 0.07 0.18 0.47 0.67 0.74 0.77 0.61 0.34 0.23 0.15 0.11 0.09 0.06 0.03 0.02 0.02 0.01
0.00 0.00 0.00 0.00 0.00 0.00 0.00 0.00 0.00 0.00 0.00 0.00 0.00 0.00 0.00 0.00 0.00 0.02 0.06 0.07 0.05 0.04 0.04 0.10 0.20 0.36 0.50 0.53 0.44 0.35 0.28 0.19 0.10 0.06 0.04 0.02 0.02 0.01
0.00 0.00 0.00 0.00 0.00 0.00 0.00 0.00 0.00 0.00 0.00 0.00 0.00 0.00 0.00 0.00 0.00 0.00 0.03 0.08 0.08 0.07 0.07 0.08 0.07 0.09 0.16 0.28 0.35 0.30 0.26 0.27 0.25 0.17 0.09 0.04 0.02 0.02
0.00 0.00 0.00 0.00 0.00 0.00 0.00 0.00 0.00 0.00 0.00 0.00 0.00 0.00 0.00 0.00 0.00 0.00 0.01 0.02 0.03 0.03 0.05 0.09 0.13 0.10 0.08 0.08 0.12 0.16 0.17 0.17 0.19 0.26 0.26 0.21 0.11 0.05
0.00 0.00 0.00 0.00 0.00 0.00 0.00 0.00 0.00 0.00 0.00 0.00 0.00 0.00 0.00 0.00 0.00 0.00 0.01 0.01 0.01 0.00 0.00 0.02 0.09 0.15 0.12 0.07 0.05 0.06 0.07 0.13 0.16 0.17 0.14 0.14 0.15 0.11
0.00 0.00 0.00 0.00 0.00 0.00 0.00 0.00 0.00 0.00 0.00 0.00 0.00 0.00 0.00 0.00 0.00 0.00 0.00 0.00 0.00 0.01 0.01 0.00 0.01 0.07 0.13 0.10 0.07 0.08 0.11 0.19 0.20 0.19 0.15 0.10 0.07 0.05
0.00 0.00 0.00 0.00 0.00 0.00 0.00 0.00 0.00 0.00 0.00 0.00 0.00 0.00 0.00 0.00 0.00 0.00 0.00 0.00 0.00 0.00 0.00 0.00 0.01 0.03 0.05 0.05 0.08 0.09 0.10 0.14 0.15 0.15 0.13 0.10 0.05 0.03
0.00 0.00 0.00 0.00 0.00 0.00 0.00 0.00 0.00 0.00 0.00 0.00 0.00 0.00 0.00 0.00 0.00 0.00 0.00 0.00 0.00 0.00 0.00 0.00 0.01 0.01 0.02 0.03 0.02 0.03 0.06 0.09 0.10 0.13 0.14 0.10 0.05 0.02
0.00 0.00 0.00 0.00 0.00 0.00 0.00 0.00 0.00 0.00 0.00 0.00 0.00 0.00 0.00 0.00 0.00 0.00 0.00 0.00 0.00 0.00 0.00 0.00 0.00 0.01 0.02 0.03 0.04 0.01 0.01 0.03 0.07 0.11 0.17 0.15 0.09 0.05
0.00 0.00 0.00 0.00 0.00 0.00 0.00 0.00 0.00 0.00 0.00 0.00 0.00 0.00 0.00 0.00 0.00 0.00 0.00 0.00 0.00 0.00 0.00 0.00 0.00 0.00 0.01 0.03 0.05 0.05 0.02 0.01 0.02 0.06 0.09 0.10 0.09 0.04
0.00 0.00 0.00 0.00 0.00 0.00 0.00 0.00 0.00 0.00 0.00 0.00 0.00 0.00 0.00 0.00 0.00 0.00 0.00 0.00 0.00 0.00 0.00 0.00 0.00 0.00 0.00 0.01 0.03 0.05 0.05 0.03 0.02 0.03 0.05 0.08 0.08 0.07
0.00 0.00 0.00 0.00 0.00 0.00 0.00 0.00 0.00 0.00 0.00 0.00 0.00 0.00 0.00 0.00 0.00 0.00 0.00 0.00 0.00 0.00 0.00 0.00 0.00 0.00 0.00 0.01 0.01 0.02 0.04 0.05 0.05 0.03 0.02 0.04 0.06 0.06
0.00 0.00 0.00 0.00 0.00 0.00 0.00 0.00 0.00 0.00 0.00 0.00 0.00 0.00 0.00 0.00 0.00 0.00 0.00 0.00 0.00 0.00 0.00 0.00 0.00 0.00 0.00 0.01 0.02 0.03 0.04 0.06 0.08 0.09 0.07 0.04 0.02 0.01
MSLP
1009.92 1010.00 1010.07 1010.13 1010.13 1010.07 1009.92 1009.68 1009.36 1008.97 1008.54 1008.09 1007.66 1007.29 1007.01 1006.84 1006.79 1006.86 1007.03 1007.26 1007.50 1007.72 1007.86 1007.90 1007.83 1007.67 1007.46 1007.24 1007.09 1007.06 1007.21 1007.56 1008.12 1008.88 1009.78 1010.79 1011.84 1012.87
1009.87 1009.92 1009.97 1010.01 1010.01 1009.97 1009.85 1009.66 1009.38 1009.04 1008.64 1008.21 1007.79 1007.41 1007.10 1006.90 1006.80 1006.82 1006.93 1007.10 1007.28 1007.43 1007.51 1007.50 1007.38 1007.18 1006.93 1006.68 1006.51 1006.47 1006.62 1006.97 1007.54 1008.30 1009.23 1010.25 1011.32 1012.36
1009.98 1009.99 1010.00 1010.00 1009.99 1009.93 1009.82 1009.65 1009.42 1009.12 1008.75 1008.36 1007.95 1007.57 1007.25 1007.00 1006.86 1006.81 1006.85 1006.94 1007.05 1007.13 1007.15 1007.09 1006.94 1006.72 1006.47 1006.23 1006.08 1006.06 1006.22 1006.59 1007.17 1007.94 1008.86 1009.87 1010.92 1011.95
1010.27 1010.25 1010.21 1010.17 1010.12 1010.04 1009.92 1009.76 1009.54 1009.27 1008.94 1008.57 1008.18 1007.79 1007.45 1007.17 1006.97 1006.85 1006.81 1006.82 1006.85 1006.87 1006.84 1006.74 1006.58 1006.37 1006.14 1005.95 1005.83 1005.86 1006.06 1006.45 1007.04 1007.80 1008.69 1009.67 1010.67 1011.65
1010.74 1010.69 1010.62 1010.53 1010.44 1010.33 1010.19 1010.02 1009.81 1009.54 1009.23 1008.87 1008.48 1008.10 1007.73 1007.41 1007.15 1006.97 1006.85 1006.78 1006.74 1006.69 1006.62 1006.51 1006.35 1006.17 1005.99 1005.85 1005.80 1005.88 1006.12 1006.54 1007.13 1007.87 1008.72 1009.64 1010.57 1011.48
1011.34 1011.27 1011.18 1011.07 1010.94 1010.79 1010.63 1010.44 1010.21 1009.94 1009.63 1009.27 1008.87 1008.47 1008.08 1007.72 1007.41 1007.17 1006.98 1006.84 1006.74 1006.65 1006.55 1006.43 1006.29 1006.15 1006.02 1005.95 1005.97 1006.10 1006.38 1006.82 1007.40 1008.10 1008.90 1009.74 1010.60 1011.42
1011.99 1011.93 1011.83 1011.70 1011.55 1011.38 1011.19 1010.97 1010.72 1010.43 1010.09 1009.72 1009.31 1008.89 1008.47 1008.08 1007.73 1007.44 1007.20 1007.01 1006.87 1006.74 1006.63 1006.52 1006.40 1006.30 1006.23 1006.22 1006.29 1006.47 1006.77 1007.21 1007.77 1008.43 1009.15 1009.92 1010.68 1011.42
1012.61 1012.57 1012.47 1012.34 1012.18 1011.99 1011.78 1011.53 1011.25 1010.93 1010.57 1010.17 1009.74 1009.30 1008.86 1008.44 1008.07 1007.74 1007.48 1007.26 1007.10 1006.96 1006.85 1006.74 1006.66 1006.59 1006.56 1006.59 1006.69 1006.90 1007.21 1007.63 1008.15 1008.75 1009.40 1010.08 1010.76 1011.41
1013.12 1013.10 1013.03 1012.91 1012.75 1012.56 1012.33 1012.06 1011.75 1011.40 1011.01 1010.58 1010.12 1009.66 1009.20 1008.78 1008.39 1008.06 1007.78 1007.56 1007.39 1007.26 1007.15 1007.06 1007.00 1006.95 1006.95 1006.99 1007.11 1007.31 1007.60 1007.99 1008.45 1008.98 1009.56 1010.15 1010.75 1011.32
1013.49 1013.50 1013.45 1013.35 1013.21 1013.02 1012.78 1012.49 1012.16 1011.78 1011.36 1010.91 1010.43 1009.95 1009.49 1009.06 1008.67 1008.34 1008.08 1007.87 1007.71 1007.58 1007.49 1007.42 1007.36 1007.33 1007.33 1007.37 1007.47 1007.65 1007.89 1008.22 1008.62 1009.07 1009.57 1010.08 1010.60 1011.11
1013.72 1013.74 1013.72 1013.65 1013.52 1013.34 1013.11 1012.82 1012.47 1012.08 1011.64 1011.16 1010.67 1010.18 1009.72 1009.29 1008.91 1008.60 1008.35 1008.16 1008.01 1007.90 1007.82 1007.75 1007.70 1007.66 1007.65 1007.67 1007.74 1007.86 1008.05 1008.31 1008.63 1009.01 1009.42 1009.86 1010.31 1010.75
1013.85 1013.88 1013.88 1013.82 1013.72 1013.56 1013.34 1013.06 1012.71 1012.31 1011.87 1011.38 1010.89 1010.40 1009.93 1009.51 1009.15 1008.84 1008.61 1008.43 1008.29 1008.19 1008.12 1008.05 1007.99 1007.94 1007.90 1007.88 1007.90 1007.97 1008.09 1008.27 1008.51 1008.80 1009.14 1009.50 1009.88 1010.27
1013.93 1013.97 1013.97 1013.93 1013.85 1013.71 1013.52 1013.25 1012.92 1012.54 1012.10 1011.62 1011.13 1010.65 1010.19 1009.77 1009.41 1009.11 1008.88 1008.70 1008.57 1008.46 1008.38 1008.30 1008.22 1008.15 1008.07 1008.02 1007.98 1007.99 1008.04 1008.15 1008.31 1008.53 1008.79 1009.08 1009.40 1009.72
1014.02 1014.04 1014.04 1014.02 1013.95 1013.84 1013.67 1013.44 1013.14 1012.78 1012.37 1011.92 1011.45 1010.98 1010.53 1010.12 1009.75 1009.45 1009.20 1009.01 1008.86 1008.74 1008.64 1008.53 1008.43 1008.32 1008.22 1008.12 1008.04 1007.99 1007.98 1008.02 1008.11 1008.25 1008.44 1008.67 1008.92 1009.20
1014.12 1014.12 1014.11 1014.09 1014.04 1013.95 1013.82 1013.63 1013.39 1013.08 1012.71 1012.31 1011.87 1011.42 1010.99 1010.57 1010.21 1009.88 1009.61 1009.39 1009.21 1009.05 1008.91 1008.78 1008.65 1008.51 1008.37 1008.23 1008.11 1008.01 1007.95 1007.93 1007.96 1008.04 1008.17 1008.34 1008.54 1008.77
1014.22 1014.20 1014.17 1014.14 1014.10 1014.04 1013.95 1013.82 1013.63 1013.39 1013.10 1012.75 1012.37 1011.96 1011.54 1011.14 1010.76 1010.42 1010.12 1009.85 1009.63 1009.43 1009.24 1009.07 1008.90 1008.73 1008.56 1008.39 1008.24 1008.11 1008.00 1007.94 1007.92 1007.95 1008.02 1008.14 1008.29 1008.47
1014.29 1014.23 1014.18 1014.14 1014.11 1014.08 1014.03 1013.96 1013.85 1013.69 1013.48 1013.21 1012.89 1012.54 1012.16 1011.78 1011.40 1011.04 1010.70 1010.40 1010.12 1009.87 1009.64 1009.43 1009.22 1009.02 1008.82 1008.63 1008.45 1008.29 1008.16 1008.06 1008.00 1007.99 1008.01 1008.09 1008.20 1008.34
1014.25 1014.17 1014.09 1014.05 1014.03 1014.02 1014.03 1014.02 1013.99 1013.92 1013.80 1013.62 1013.39 1013.10 1012.78 1012.42 1012.06 1011.69 1011.33 1010.99 1010.67 1010.38 1010.10 1009.85 1009.61 1009.38 1009.15 1008.95 1008.75 1008.57 1008.42 1008.29 1008.20 1008.15 1008.14 1008.17 1008.25 1008.36
1014.09 1013.98 1013.89 1013.84 1013.83 1013.85 1013.91 1013.97 1014.02 1014.04 1014.01 1013.93 1013.79 1013.59 1013.32 1013.01 1012.67 1012.31 1011.95 1011.59 1011.24 1010.92 1010.61 1010.32 1010.05 1009.79 1009.55 1009.32 1009.11 1008.91 1008.74 1008.60 1008.48 1008.40 1008.36 1008.36 1008.39 1008.47
1013.77 1013.65 1013.56 1013.52 1013.52 1013.58 1013.68 1013.81 1013.93 1014.04 1014.11 1014.12 1014.07 1013.94 1013.75 1013.50 1013.20 1012.87 1012.52 1012.16 1011.80 1011.45 1011.12 1010.81 1010.51 1010.23 1009.97 1009.73 1009.50 1009.29 1009.10 1008.93 1008.79 1008.69 1008.62 1008.58 1008.59 1008.63
1013.32 1013.21 1013.14 1013.11 1013.15 1013.25 1013.39 1013.57 1013.76 1013.94 1014.09 1014.18 1014.21 1014.17 1014.05 1013.86 1013.61 1013.32 1012.99 1012.65 1012.30 1011.95 1011.61 1011.28 1010.97 1010.67 1010.39 1010.13 1009.88 1009.65 1009.45 1009.26 1009.10 1008.98 1008.88 1008.81 1008.78 1008.79
1012.76 1012.69 1012.66 1012.67 1012.75 1012.89 1013.08 1013.31 1013.55 1013.79 1014.00 1014.15 1014.25 1014.27 1014.21 1014.08 1013.89 1013.65 1013.36 1013.05 1012.72 1012.38 1012.05 1011.72 1011.39 1011.08 1010.78 1010.50 1010.24 1009.99 1009.76 1009.56 1009.39 1009.24 1009.12 1009.03 1008.96 1008.93
1012.14 1012.13 1012.16 1012.23 1012.37 1012.56 1012.80 1013.07 1013.35 1013.63 1013.87 1014.07 1014.21 1014.28 1014.27 1014.19 1014.06 1013.86 1013.62 1013.35 1013.05 1012.74 1012.42 1012.09 1011.76 1011.44 1011.13 1010.83 1010.54 1010.27 1010.03 1009.82 1009.63 1009.46 1009.33 1009.22 1009.13 1009.05
Thickness
5703 5702 5701 5703 5705 5705 5705 5706 5704 5705 5708 5710 5711 5711 5709 5708 5706 5707 5706 5702 5702 5701 5700 5701 5701 5702 5706 5711 5714 5716 5717 5716 5715 5710 5704 5698 5692 5686
5692 5690 5689 5691 5692 5694 5697 5698 5697 5696 5696 5700 5699 5700 5699 5698 5696 5696 5695 5692 5693 5692 5693 5694 5695 5696 5701 5707 5711 5713 5714 5712 5711 5707 5700 5694 5688 5682
5682 5682 5681 5681 5682 5685 5687 5688 5687 5686 5685 5692 5694 5693 5689 5686 5686 5686 5686 5685 5686 5685 5686 5687 5688 5690 5695 5701 5706 5709 5710 5708 5704 5700 5694 5689 5683 5678
5671 5671 5670 5670 5669 5671 5673 5675 5677 5677 5676 5676 5680 5682 5681 5679 5678 5677 5678 5679 5679 5679 5678 5679 5681 5683 5687 5693 5698 5702 5703 5700 5697 5692 5687 5683 5678 5673
5660 5658 5656 5656 5657 5659 5659 5663 5669 5673 5668 5665 5665 5667 5669 5670 5671 5672 5672 5671 5672 5672 5669 5670 5672 5675 5678 5683 5688 5692 5693 5692 5689 5685 5680 5675 5671 5668
5647 5646 5646 5646 5645 5646 5650 5652 5657 5659 5658 5658 5657 5658 5660 5662 5663 5662 5662 5663 5664 5665 5663 5664 5665 5666 5670 5673 5678 5681 5682 5681 5679 5676 5673 5668 5664 5661
5633 5633 5632 5630 5627 5631 5638 5641 5644 5646 5650 5650 5648 5649 5649 5650 5651 5651 5652 5655 5656 5656 5656 5656 5658 5662 5664 5665 5667 5669 5670 5670 5669 5666 5663 5660 5656 5654
5622 5622 5623 5621 5619 5619 5621 5621 5623 5629 5632 5635 5635 5635 5634 5638 5640 5643 5642 5643 5643 5646 5647 5647 5649 5651 5655 5658 5658 5658 5659 5659 5658 5656 5654 5651 5649 5647
5611 5612 5615 5611 5612 5615 5612 5611 5612 5613 5612 5617 5619 5618 5623 5625 5628 5635 5633 5631 5630 5632 5636 5635 5637 5640 5645 5646 5647 5647 5648 5649 5649 5647 5644 5643 5642 5642
5601 5601 5601 5599 5598 5599 5603 5604 5606 5606 5606 5608 5605 5605 5609 5612 5619 5625 5627 5628 5626 5625 5625 5623 5625 5628 5633 5635 5636 5637 5638 5640 5641 5640 5638 5637 5636 5637
5591 5590 5592 5590 5583 5585 5592 5593 5594 5595 5594 5592 5590 5592 5595 5599 5606 5616 5618 5622 5621 5618 5617 5615 5616 5618 5621 5622 5623 5626 5629 5631 5634 5634 5633 5633 5632 5632
5585 5584 5577 5576 5573 5573 5581 5582 5580 5580 5582 5586 5584 5586 5590 5592 5595 5599 5604 5606 5607 5606 5607 5608 5608 5610 5610 5611 5613 5615 5618 5621 5625 5627 5628 5628 5628 5627
5586 5584 5577 5568 5567 5567 5568 5569 5566 5566 5575 5576 5577 5577 5579 5580 5583 5584 5586 5589 5591 5592 5595 5599 5601 5603 5602 5602 5604 5607 5611 5613 5617 5619 5621 5622 5622 5624
5580 5579 5571 5563 5561 5559 5560 5555 5556 5560 5565 5565 5564 5562 5562 5563 5565 5569 5570 5572 5574 5577 5580 5586 5590 5592 5595 5596 5597 5600 5605 5608 5611 5612 5614 5614 5615 5617
5571 5562 5560 5557 5553 5553 5549 5549 5552 5554 5553 5552 5550 5549 5549 5547 5550 5553 5558 5562 5566 5568 5569 5573 5578 5582 5586 5589 5592 5595 5599 5602 5604 5606 5607 5608 5609 5610
5565 5557 5553 5552 5551 5547 5547 5548 5545 5540 5539 5539 5539 5539 5538 5538 5539 5539 5542 5546 5551 5556 5557 5560 5566 5570 5574 5577 5581 5585 5588 5592 5595 5597 5599 5600 5602 5603
5561 5561 5561 5557 5554 5549 5545 5539 5536 5533 5531 5530 5528 5528 5528 5528 5528 5528 5528 5532 5535 5538 5542 5546 5552 5557 5558 5562 5566 5570 5574 5578 5581 5585 5588 5589 5591 5593
5554 5559 5556 5552 5548 5543 5538 5534 5528 5523 5520 5519 5517 5516 5516 5516 5516 5517 5517 5517 5519 5522 5525 5529 5534 5540 5544 5545 5544 5554 5559 5562 5566 5570 5574 5577 5580 5583
5553 5554 5550 5545 5541 5536 5531 5526 5520 5514 5509 5509 5507 5505 5505 5506 5505 5504 5504 5504 5506 5509 5512 5515 5517 5519 5525 5530 5533 5531 5539 5545 5552 5556 5559 5562 5567 5571
5553 5549 5545 5540 5535 5530 5525 5519 5514 5509 5504 5501 5498 5496 5496 5496 5495 5494 5495 5490 5493 5496 5499 5501 5500 5500 5504 5511 5517 5521 5520 5527 5534 5539 5543 5547 5552 5555
5550 5546 5541 5537 5531 5525 5519 5512 5508 5502 5495 5494 5491 5487 5488 5488 5486 5486 5486 5481 5482 5486 5486 5488 5485 5484 5493 5499 5505 5510 5512 5511 5515 5519 5525 5531 5537 5542
5547 5543 5538 5534 5528 5523 5516 5509 5505 5498 5493 5490 5486 5483 5481 5479 5478 5477 5477 5476 5476 5475 5474 5477 5477 5480 5483 5486 5488 5493 5497 5499 5501 5503 5507 5511 5518 5524
5544 5541 5537 5531 5526 5520 5515 5510 5502 5497 5490 5485 5480 5477 5474 5472 5470 5469 5469 5468 5467 5465 5465 5466 5467 5469 5471 5472 5475 5478 5481 5485 5488 5493 5496 5498 5502 5507